Tracking 17145 objects as of 30-May-2015
HD Live streaming from Space Station

ARIANE 44L R/B

Track ARIANE 44L R/B now!
ARIANE 44L R/B is classified as:


NORAD ID: 26696
Int'l Code: 2001-005C
Perigee: 324.4 km
Apogee: 32,601.0 km
Inclination: 6.9 °
Period: 572.3 minutes
Semi major axis: 22833 km
RCS: 23.3181 m2 (large)
Launch date: February 7, 2001
Source: France (FR)

Note: This is a ROCKET BODY
Your satellite tracking list
Your tracking list is empty





NASA's NSSDC Master Catalog

Two Line Element Set (TLE):
1 26696U 01005C   15149.33460110  .00001700  00000-0  11086-2 0  9999
2 26696 006.8615 206.6938 7067744 296.5761 086.8668 02.51615460124236

Source of the keplerian elements: AFSPC

N2YO: 250